• In Latvia
  • List of Countries
  • For 7 days
  • Water Temperature
  • Satellite Maps
  • Weather Map
  • Weather Widgets
  • user-avatar
    Login

    Hourly Weather Ganja

    Today, 23 October, Tuesday

    Time Temperature Precipitation Wind Pressure Humidity
    00:00 +17°C° 0 mm 2 mps 726 mmHg 64%
    01:00 +17°C° 0 mm 3 mps 726 mmHg 64%
    02:00 +17°C° 0 mm 3 mps 726 mmHg 65%
    03:00 +17°C° 0 mm 3 mps 726 mmHg 68%
    04:00 +17°C° 0 mm 3 mps 726 mmHg 69%
    05:00 +16°C° 0 mm 3 mps 726 mmHg 69%
    06:00 +16°C° 0 mm 3 mps 726 mmHg 69%
    07:00 +17°C° 0 mm 3 mps 726 mmHg 63%
    08:00 +19°C° 0 mm 3 mps 726 mmHg 57%
    09:00 +20°C° 0 mm 3 mps 726 mmHg 51%
    10:00 +21°C° 0 mm 3 mps 726 mmHg 48%
    11:00 +22°C° 0 mm 3 mps 726 mmHg 44%
    12:00 +24°C° 0 mm 3 mps 726 mmHg 41%
    13:00 +24°C° 0 mm 2 mps 726 mmHg 40%
    14:00 +24°C° 0 mm 2 mps 725 mmHg 40%
    15:00 +24°C° 0 mm 2 mps 725 mmHg 39%
    16:00 +23°C° 0 mm 2 mps 725 mmHg 43%
    17:00 +22°C° 0 mm 1 mps 725 mmHg 47%
    18:00 +20°C° 0 mm 1 mps 725 mmHg 51%
    19:00 +20°C° 0 mm 1 mps 725 mmHg 51%
    20:00 +19°C° 0 mm 1 mps 725 mmHg 50%
    21:00 +19°C° 0 mm 1 mps 725 mmHg 50%
    22:00 +18°C° 0 mm 1 mps 725 mmHg 50%
    23:00 +18°C° 0 mm 1 mps 725 mmHg 50%

    Tomorrow, 24 October, Wednesday

    Time Temperature Precipitation Wind Pressure Humidity
    00:00 +18°C° 0 mm 1 mps 725 mmHg 50%
    01:00 +16°C° 0 mm 1 mps 725 mmHg 51%
    02:00 +16°C° 0 mm 1 mps 725 mmHg 51%
    03:00 +15°C° 0 mm 1 mps 725 mmHg 52%
    04:00 +15°C° 0 mm 1 mps 724 mmHg 52%
    05:00 +15°C° 0 mm 2 mps 724 mmHg 53%
    06:00 +15°C° 0 mm 2 mps 723 mmHg 53%
    07:00 +17°C° 0 mm 2 mps 723 mmHg 48%
    08:00 +18°C° 0 mm 2 mps 723 mmHg 44%
    09:00 +20°C° 0 mm 2 mps 723 mmHg 40%
    10:00 +20°C° 0.1 mm 2 mps 723 mmHg 40%
    11:00 +21°C° 0.1 mm 2 mps 722 mmHg 40%
    12:00 +21°C° 0.1 mm 2 mps 721 mmHg 40%
    13:00 +23°C° 0 mm 2 mps 721 mmHg 39%
    14:00 +23°C° 0 mm 2 mps 720 mmHg 38%
    15:00 +24°C° 0 mm 2 mps 719 mmHg 36%
    16:00 +21°C° 0 mm 2 mps 719 mmHg 40%
    17:00 +20°C° 0 mm 2 mps 719 mmHg 43%
    18:00 +20°C° 0 mm 1 mps 719 mmHg 46%
    19:00 +19°C° 0 mm 2 mps 719 mmHg 47%
    20:00 +19°C° 0 mm 2 mps 719 mmHg 47%
    21:00 +19°C° 0 mm 2 mps 719 mmHg 47%
    22:00 +18°C° 0 mm 2 mps 719 mmHg 49%
    23:00 +18°C° 0 mm 2 mps 718 mmHg 50%

    Day after tomorrow, 25 October, Thursday

    Time Temperature Precipitation Wind Pressure Humidity
    00:00 +18°C° 0 mm 3 mps 718 mmHg 52%
    01:00 +17°C° 0 mm 3 mps 718 mmHg 53%
    02:00 +17°C° 0 mm 3 mps 718 mmHg 55%
    03:00 +17°C° 0 mm 3 mps 717 mmHg 56%
    04:00 +17°C° 0 mm 3 mps 717 mmHg 57%
    05:00 +17°C° 0 mm 3 mps 717 mmHg 57%
    06:00 +16°C° 0 mm 3 mps 717 mmHg 58%
    07:00 +18°C° 0 mm 3 mps 717 mmHg 52%
    08:00 +20°C° 0 mm 3 mps 716 mmHg 46%
    09:00 +22°C° 0 mm 3 mps 716 mmHg 40%
    10:00 +24°C° 0 mm 3 mps 716 mmHg 37%
    11:00 +25°C° 0 mm 4 mps 715 mmHg 34%
    12:00 +27°C° 0 mm 5 mps 714 mmHg 30%
    13:00 +27°C° 0 mm 5 mps 714 mmHg 30%
    14:00 +27°C° 0 mm 5 mps 713 mmHg 30%
    15:00 +28°C° 0 mm 5 mps 712 mmHg 29%
    16:00 +26°C° 0 mm 4 mps 713 mmHg 33%
    17:00 +24°C° 0 mm 3 mps 713 mmHg 37%
    18:00 +23°C° 0 mm 2 mps 713 mmHg 41%
    19:00 +21°C° 0 mm 2 mps 713 mmHg 42%
    20:00 +21°C° 0 mm 2 mps 714 mmHg 43%
    21:00 +20°C° 0 mm 2 mps 714 mmHg 45%
    22:00 +20°C° 0 mm 3 mps 714 mmHg 47%
    23:00 +19°C° 0 mm 4 mps 714 mmHg 50%

    26 October, Friday

    Time Temperature Precipitation Wind Pressure Humidity
    00:00 +18°C° 0 mm 4 mps 714 mmHg 52%
    01:00 +17°C° 0 mm 5 mps 715 mmHg 55%
    02:00 +16°C° 0 mm 5 mps 715 mmHg 58%
    03:00 +15°C° 0 mm 6 mps 715 mmHg 60%
    04:00 +14°C° 0 mm 6 mps 716 mmHg 60%
    05:00 +14°C° 0 mm 6 mps 716 mmHg 60%
    06:00 +13°C° 0 mm 6 mps 717 mmHg 61%
    07:00 +14°C° 0.1 mm 6 mps 718 mmHg 58%
    08:00 +14°C° 0.1 mm 6 mps 718 mmHg 55%
    09:00 +15°C° 0.1 mm 6 mps 719 mmHg 53%
    10:00 +14°C° 0.4 mm 7 mps 719 mmHg 55%
    11:00 +14°C° 0.4 mm 7 mps 719 mmHg 58%
    12:00 +12°C° 0.4 mm 7 mps 719 mmHg 60%
    13:00 +11°C° 1.5 mm 7 mps 720 mmHg 63%
    14:00 +11°C° 1.5 mm 6 mps 720 mmHg 66%
    15:00 +10°C° 1.5 mm 6 mps 720 mmHg 68%
    16:00 +10°C° 0.7 mm 6 mps 721 mmHg 67%
    17:00 +10°C° 0.7 mm 5 mps 722 mmHg 65%
    18:00 +12°C° 0.7 mm 5 mps 723 mmHg 64%
    19:00 +12°C° 0.3 mm 5 mps 724 mmHg 63%
    20:00 +12°C° 0.3 mm 5 mps 724 mmHg 62%
    21:00 +12°C° 0.3 mm 4 mps 725 mmHg 61%
    22:00 +11°C° 0 mm 4 mps 726 mmHg 61%
    23:00 +11°C° 0 mm 4 mps 726 mmHg 61%

    27 October, Saturday

    Time Temperature Precipitation Wind Pressure Humidity
    00:00 +10°C° 0 mm 4 mps 726 mmHg 62%
    01:00 +10°C° 0 mm 4 mps 727 mmHg 61%
    02:00 +8°C° 0 mm 4 mps 727 mmHg 61%
    03:00 +8°C° 0 mm 4 mps 728 mmHg 61%
    04:00 +8°C° 0 mm 4 mps 728 mmHg 61%
    05:00 +8°C° 0 mm 4 mps 729 mmHg 60%
    06:00 +8°C° 0 mm 4 mps 730 mmHg 60%
    07:00 +10°C° 0 mm 4 mps 730 mmHg 58%
    08:00 +11°C° 0 mm 4 mps 731 mmHg 57%
    09:00 +13°C° 0 mm 4 mps 731 mmHg 55%
    10:00 +14°C° 0 mm 3 mps 731 mmHg 53%
    11:00 +16°C° 0 mm 3 mps 731 mmHg 51%
    12:00 +17°C° 0 mm 3 mps 731 mmHg 49%
    13:00 +17°C° 0 mm 2 mps 731 mmHg 48%
    14:00 +17°C° 0 mm 2 mps 731 mmHg 48%
    15:00 +19°C° 0 mm 1 mps 731 mmHg 47%
    16:00 +16°C° 0 mm 1 mps 731 mmHg 49%
    17:00 +15°C° 0 mm 2 mps 732 mmHg 51%
    18:00 +14°C° 0 mm 2 mps 733 mmHg 53%
    19:00 +14°C° 0 mm 2 mps 733 mmHg 54%
    20:00 +13°C° 0 mm 2 mps 733 mmHg 55%
    21:00 +13°C° 0 mm 2 mps 734 mmHg 55%
    22:00 +12°C° 0 mm 2 mps 734 mmHg 57%
    23:00 +12°C° 0 mm 2 mps 734 mmHg 58%

    28 October, Sunday

    Time Temperature Precipitation Wind Pressure Humidity
    00:00 +10°C° 0 mm 2 mps 734 mmHg 59%
    01:00 +11°C° 0 mm 1 mps 734 mmHg 59%
    02:00 +11°C° 0 mm 1 mps 734 mmHg 59%
    03:00 +11°C° 0 mm 1 mps 733 mmHg 59%
    04:00 +10°C° 0 mm 1 mps 734 mmHg 57%
    05:00 +9°C° 0 mm 2 mps 734 mmHg 55%
    06:00 +9°C° 0 mm 2 mps 734 mmHg 53%
    07:00 +12°C° 0 mm 2 mps 734 mmHg 50%
    08:00 +13°C° 0 mm 1 mps 734 mmHg 47%
    09:00 +15°C° 0 mm 1 mps 734 mmHg 44%
    10:00 +16°C° 0 mm 1 mps 733 mmHg 44%
    11:00 +18°C° 0 mm 1 mps 733 mmHg 43%
    12:00 +19°C° 0 mm 1 mps 733 mmHg 42%
    13:00 +19°C° 0 mm 1 mps 733 mmHg 41%
    14:00 +19°C° 0 mm 1 mps 732 mmHg 41%
    15:00 +20°C° 0 mm 1 mps 732 mmHg 40%
    16:00 +18°C° 0 mm 1 mps 732 mmHg 43%
    17:00 +16°C° 0 mm 1 mps 733 mmHg 46%
    18:00 +15°C° 0 mm 1 mps 733 mmHg 49%
    19:00 +15°C° 0 mm 1 mps 733 mmHg 50%
    20:00 +14°C° 0 mm 1 mps 733 mmHg 50%
    21:00 +14°C° 0 mm 2 mps 733 mmHg 51%
    22:00 +14°C° 0 mm 1 mps 733 mmHg 51%
    23:00 +13°C° 0 mm 1 mps 733 mmHg 52%

    29 October, Monday

    Time Temperature Precipitation Wind Pressure Humidity
    00:00 +13°C° 0 mm 1 mps 734 mmHg 53%
    01:00 +13°C° 0 mm 1 mps 733 mmHg 54%
    02:00 +12°C° 0 mm 1 mps 733 mmHg 55%
    03:00 +12°C° 0 mm 1 mps 733 mmHg 55%
    04:00 +12°C° 0 mm 1 mps 733 mmHg 55%
    05:00 +12°C° 0 mm 1 mps 733 mmHg 55%
    06:00 +11°C° 0 mm 1 mps 734 mmHg 56%
    07:00 +13°C° 0 mm 1 mps 734 mmHg 52%
    08:00 +15°C° 0 mm 1 mps 734 mmHg 48%
    09:00 +16°C° 0 mm 1 mps 734 mmHg 45%
    10:00 +18°C° 0 mm 1 mps 734 mmHg 42%
    11:00 +19°C° 0 mm 1 mps 734 mmHg 40%
    12:00 +20°C° 0 mm 1 mps 733 mmHg 38%
    13:00 +21°C° 0 mm 1 mps 733 mmHg 38%
    14:00 +21°C° 0 mm 1 mps 733 mmHg 38%
    15:00 +21°C° 0 mm 1 mps 732 mmHg 38%
    16:00 +19°C° 0 mm 2 mps 733 mmHg 42%
    17:00 +17°C° 0 mm 2 mps 733 mmHg 46%
    18:00 +16°C° 0 mm 2 mps 733 mmHg 50%
    19:00 +15°C° 0 mm 2 mps 733 mmHg 51%
    20:00 +15°C° 0 mm 2 mps 733 mmHg 52%
    21:00 +15°C° 0 mm 2 mps 733 mmHg 53%
    22:00 +14°C° 0 mm 1 mps 733 mmHg 54%
    23:00 +14°C° 0 mm 1 mps 733 mmHg 55%
    Show more